Location: Niedergestelen
(46.3129°N, 7.7822°E)
Time: 05:19:47
(UTC+00:00)

SL-24 R/B - Pass Details

Date: 01 December 2020
Orbit: 505 x 1003 km, 97.4° (Epoch: 18 January)

Event Time Altitude Azimuth Distance (km) Brightness Sun altitude
Exits shadow 17:49:36 56° 18° (NNE) 625 3.8 -21.0°
Maximum altitude 17:50:20 87° 98° (E) 524 3.5 -21.1°
Drops below altitude 10° 17:53:59 10° 193° (SSW) 1,714 6.6 -21.7°
Sets 17:56:01 0° 193° (SSW) 2,594 7.6 -22.1°
